星链-30706 (STARLINK-30706 )

导读

STARLINK-30706是美国太空探索技术公司(SpaceX)星链卫星互联网星座的组网卫星,于2023年9月25日发射入轨,属于星链星座大规模部署批次中的一员,承担近地轨道卫星互联网组网任务,为全球用户提供低延迟、高速率的宽带互联网接入服务,推进星链星座全球覆盖的建设进程。

Basic Information
目录编号:
57947
目录名称:
STARLINK-30706
国际标识:
2023-148N
轨道中心:
EARTH
卫星名称:
星链-30706
卫星全名:
星链-30706 (STARLINK-30706 )
卫星状态:
在轨 (已飞行1076 天)
发射日期:
2023-09-25 UTC
国别 :
美国 (US)
星等 :
--
Orbit Information
数据来源 国际轨道数据 AOE轨道数据
星历时间 2026-09-05T14:02:13+0800
9小时前
查看轨道信息
2026-09-02T05:00:00+0800
3天前
查看轨道信息
半长轴 6840.876km 6840.866km
偏心率 0.0001233 0.0001259
轨道倾角 53.159° 53.157°
近地点辐角 97.886° 98.275°
升交点赤经 266.717° 282.502°
平近点角 262.228° 320.067°
近地点 461.895km 461.867km
远地点 463.583km 463.591km
周期 93.848分钟 93.848分钟
每日圈数 15.34388 15.343916
Detailed Information
固有亮度:
5
最大亮度:
0.3
卫星平台:
Starlink v2.0 mini
覆盖范围:
全球
运营商:
太空探索技术公司
运营商所在国:
美国
制造商(研发单位):
太空探索技术公司
制造商所在国:
美国
使用方式:
暂无
Satellite Introduction
星链(Starlink)计划是由太空探索技术公司(SpaceX)提出的一个巨型低轨卫星互联网星座项目,计划在2019年至2024年间在太空搭建由约1.2万颗卫星组成的“星链”网络,其中1584颗将部署在地球上空550千米处的近地轨道,并从2020年开始工作。该卫星仍在工作。
2D Orbit Map
3D Orbit Map
Orbit Altitude Analysis Chart
Orbit Inclination Analysis Chart
Orbit Comprehensive Analysis Chart
View Comprehensive Chart
Conjunction Data List
Event ID Objects TCA Miss Dist (km) Collision Risk Probability Collision Risk Index (CRI) Action
CDM_260907-235805-794706-281021
2026-09-07T
23:58:58+0000
0.951 km
远距离
1.933392E-5 中风险 0.61
CDM_260907-222505-794706-281021
2026-09-07T
22:25:11+0000
1.607 km
极远距离
3.31285E-6 低风险 0.45
CDM_260907-091005-794706-459721
2026-09-07T
09:10:14+0000
1.690 km
极远距离
2.211835E-6 低风险 0.42
CDM_260830-131405-328205-794722
2026-08-30T
13:14:38+0000
2.380 km
极远距离
1.717827E-6 低风险 0.4